Wind_Speed
28 28 27 25 28 29 29 28 26 24 23 20 19 19 19 21 22 22 26 21 16 10 15 11 9 5 5 5 8 4 3 3 4 6 4 4 5 7 9 2 3 2 1 5 7
31 30 29 28 27 28 30 29 28 26 25 22 20 19 19 20 23 28 24 23 21 18 16 12 10 6 4 4 6 6 4 9 6 3 3 4 4 11 7 7 5 7 8 11 9
29 31 33 31 30 29 29 30 29 28 26 24 22 19 18 17 21 25 10 13 18 20 16 14 11 7 5 7 7 5 6 5 8 17 15 6 5 2 5 4 10 8 10 10 11
35 33 28 36 33 31 30 29 30 28 27 25 23 20 17 13 7 5 6 8 2 18 19 15 11 5 4 5 7 3 8 7 6 6 9 6 9 6 13 11 12 15 16 16 14
27 34 34 28 36 33 31 31 29 29 28 26 24 22 17 15 24 9 8 4 6 8 16 16 13 8 4 4 3 5 4 8 9 18 16 14 12 12 24 23 16 21 24 20 21
26 27 34 34 31 35 32 31 31 29 28 27 25 24 20 16 31 30 30 25 21 11 10 13 7 6 5 4 4 3 6 11 13 21 18 7 8 5 17 21 27 26 26 24 18
26 27 27 35 35 33 36 31 31 30 29 27 26 25 28 39 14 12 22 29 15 16 15 13 10 9 1 2 3 3 5 7 13 10 8 6 9 8 22 23 26 22 21 16 13
25 26 27 28 35 35 35 35 30 30 28 27 25 24 21 26 35 37 13 19 20 19 17 13 8 6 4 4 3 1 2 3 4 2 7 7 8 16 22 18 20 12 5 16 15
25 27 27 27 25 33 31 35 33 30 28 27 23 19 17 12 34 43 36 28 21 19 17 13 7 8 4 5 3 2 5 6 7 5 4 5 6 8 22 15 15 9 12 17 15
24 25 26 27 25 27 32 23 30 32 29 21 19 8 28 17 30 33 37 33 25 17 20 14 8 4 4 4 11 10 4 4 6 3 3 3 9 9 22 14 9 19 17 19 19
22 21 24 27 28 20 26 20 13 13 37 29 16 20 4 12 17 21 32 37 27 17 10 8 5 14 14 17 5 4 5 6 4 5 3 8 7 10 16 7 7 20 21 19 20
18 19 23 26 27 25 24 26 24 10 12 44 22 41 21 17 10 16 19 22 19 21 12 5 24 18 11 14 11 10 6 6 8 14 5 9 14 9 8 7 10 18 27 29 26
21 20 21 21 29 33 26 30 26 23 6 23 57 33 26 28 9 17 32 22 16 16 23 24 5 20 16 12 13 12 18 14 13 5 5 3 9 7 4 5 6 12 28 30 31
23 21 20 19 20 31 31 21 34 31 5 6 19 31 28 10 12 33 32 24 7 24 18 15 25 16 15 20 14 16 16 15 11 4 5 5 5 5 5 5 4 17 29 30 29
21 19 18 15 12 20 36 26 35 28 7 9 18 12 36 27 10 25 35 25 12 10 13 16 16 19 19 23 21 12 10 16 14 8 2 3 4 4 8 6 7 7 29 30 28
17 17 15 16 21 29 16 24 38 8 8 5 12 17 19 34 43 7 29 26 19 11 19 24 17 22 24 12 20 7 2 3 2 3 9 8 8 15 10 7 7 8 27 31 29
17 16 18 17 24 25 20 24 14 16 11 8 9 19 27 18 21 24 20 23 16 13 19 12 20 4 10 19 13 15 8 1 3 3 9 11 9 18 3 3 16 16 27 30 26
19 18 21 24 22 20 26 7 20 19 9 9 8 14 22 16 17 24 24 23 25 24 12 15 11 28 7 10 11 21 15 6 9 5 5 7 7 5 5 15 25 29 32 27 28
18 21 27 29 22 19 16 8 6 6 16 10 9 11 20 22 12 24 26 31 31 28 21 17 18 5 21 4 12 8 15 16 3 3 1 5 3 1 4 7 17 24 28 27 27
18 18 29 27 19 15 8 10 6 8 14 22 20 15 20 26 18 25 25 32 32 34 23 5 5 9 21 20 14 11 8 5 1 6 8 5 7 6 6 12 14 13 20 24 23
18 10 11 10 12 11 9 5 6 19 20 11 14 16 18 18 25 24 22 17 33 28 26 8 5 4 14 17 29 12 10 5 6 6 6 3 7 5 17 16 19 13 23 23 26
20 7 9 13 7 3 10 6 10 13 15 14 7 8 17 22 24 20 26 28 25 24 34 27 5 5 20 5 10 27 28 21 9 6 3 2 16 4 14 12 11 15 22 23 24
13 10 14 16 6 8 5 12 9 3 6 5 5 22 5 17 15 23 14 19 12 29 30 22 7 3 4 4 2 10 19 17 3 4 18 9 9 4 13 11 18 19 20 24 23
8 3 12 22 21 6 6 9 15 17 20 16 14 7 6 13 8 11 10 4 3 21 30 23 12 27 24 23 9 8 11 19 16 11 9 20 7 7 12 13 13 20 22 26 23
13 5 12 5 13 16 11 3 20 12 12 7 17 25 15 6 19 10 1 0 2 3 10 19 26 24 25 2 3 16 18 19 23 28 20 23 15 20 16 15 14 18 25 25 23
7 5 8 3 7 16 19 21 17 21 8 13 16 15 20 14 14 10 16 6 11 2 5 2 8 24 19 6 3 5 12 24 28 30 28 12 14 16 19 18 15 17 28 28 26
23 24 9 7 13 9 17 25 29 18 15 25 18 14 21 20 6 2 17 9 3 8 7 8 7 5 21 5 5 7 25 19 22 24 28 22 13 22 19 16 17 21 28 29 25
Wind_Direction
254 258 256 252 248 251 250 250 250 252 255 257 263 271 276 282 283 281 272 271 279 275 242 249 261 263 258 233 213 193 72 237 249 173 229 251 355 333 304 265 317 164 314 314 310
250 252 256 254 254 248 251 250 251 250 253 257 261 267 276 284 288 278 276 274 260 254 242 238 248 269 249 227 212 169 161 218 219 224 225 299 274 282 270 274 243 263 284 295 292
254 251 248 252 252 254 249 251 250 250 251 253 259 264 273 285 302 282 265 260 247 228 217 231 248 262 231 217 208 193 211 231 260 282 298 271 310 242 230 232 229 262 289 275 270
254 252 254 245 247 250 252 249 250 249 249 251 253 257 263 266 246 177 127 69 219 205 215 229 245 219 222 215 209 216 237 235 287 295 313 294 293 267 254 246 292 286 284 281 264
259 254 252 255 243 244 247 249 247 247 247 247 250 250 254 242 234 210 231 300 337 230 227 223 222 205 206 225 222 218 267 273 265 286 282 281 257 262 259 273 283 288 294 287 292
262 262 253 252 256 243 242 244 246 245 243 245 245 247 239 243 251 246 252 263 272 238 222 214 219 210 270 237 197 267 285 290 291 285 293 242 262 235 277 290 290 287 291 287 293
269 262 262 253 252 255 241 236 242 240 240 240 242 244 242 238 239 239 243 241 223 218 235 237 237 242 226 259 311 292 329 328 279 277 262 275 281 234 281 293 288 283 286 282 185
273 266 262 260 248 253 251 243 237 236 234 233 237 241 250 248 245 242 231 220 208 213 220 223 230 256 219 273 358 41 129 270 267 208 265 149 287 287 305 303 284 304 199 163 171
275 270 263 264 256 247 248 245 245 227 224 223 227 227 263 251 238 241 231 233 216 218 220 230 224 217 176 128 5 264 224 218 309 206 211 171 259 278 326 326 260 136 152 154 161
274 272 266 260 258 255 245 251 242 232 205 209 222 217 243 222 233 238 230 222 229 228 232 233 209 180 169 152 214 213 208 234 214 265 146 231 258 287 301 307 284 156 163 155 153
276 273 267 256 248 258 251 241 184 191 187 193 207 212 98 252 248 227 224 210 217 224 194 188 193 211 193 208 222 188 198 216 223 228 328 263 263 271 288 274 281 165 173 162 147
282 285 275 258 245 244 237 224 203 194 204 218 226 223 222 156 175 202 200 177 186 209 177 208 228 211 196 218 226 233 236 235 277 269 217 258 265 254 262 243 236 192 181 170 163
268 280 290 279 249 238 246 229 226 206 234 217 224 232 224 229 233 218 187 188 195 197 197 206 200 199 200 209 211 223 230 238 236 337 277 282 277 229 223 241 250 217 191 173 165
265 269 280 282 266 246 246 237 229 208 247 229 203 231 216 229 239 218 199 178 180 208 202 232 233 197 203 219 189 229 216 233 240 191 238 171 274 266 210 208 199 164 171 168 160
261 264 267 268 250 235 238 244 216 188 240 177 204 200 197 202 141 213 209 199 186 162 160 218 174 193 207 214 193 227 178 207 219 222 217 229 297 219 145 212 206 170 162 163 161
259 258 265 263 252 232 224 224 207 219 221 214 164 177 160 204 216 167 180 202 206 175 206 221 194 197 218 190 196 189 192 110 128 142 249 193 195 252 212 195 168 182 168 162 160
262 259 257 257 256 234 249 235 217 217 133 208 191 168 186 196 214 205 190 191 184 182 207 207 229 244 181 206 185 209 149 197 238 208 243 180 215 248 326 198 171 172 173 165 162
263 260 259 255 260 255 268 251 213 224 184 202 156 163 197 177 201 193 195 197 205 200 193 205 210 219 186 193 184 191 187 183 197 200 245 180 234 237 283 268 172 165 170 164 158
264 262 261 255 259 259 247 228 284 189 179 199 161 181 198 205 187 199 198 202 204 200 203 201 229 189 207 181 155 185 206 203 355 101 318 225 295 306 68 108 146 147 160 158 159
256 262 260 267 263 232 234 236 271 318 204 188 182 187 188 203 197 189 198 208 211 203 199 210 232 205 199 201 231 182 158 156 96 214 241 233 243 231 178 158 149 154 160 160 162
250 245 267 273 210 203 236 240 252 272 268 239 182 179 199 191 201 195 205 211 206 202 205 182 159 280 149 197 199 198 201 181 165 176 200 248 256 211 177 180 165 163 163 158 157
231 231 238 200 193 205 230 209 226 255 251 252 240 161 184 185 199 200 217 203 198 195 200 203 149 174 205 208 224 208 207 199 200 245 209 187 256 307 168 156 160 164 163 160 165
225 222 219 214 220 213 267 222 237 243 268 257 263 213 180 183 198 212 214 216 208 194 198 194 199 110 11 304 325 199 211 211 141 84 215 194 255 131 138 155 169 156 161 164 163
208 221 196 208 234 201 199 214 219 237 256 247 287 264 121 191 181 201 211 190 132 205 201 189 203 208 215 218 142 192 196 207 199 219 212 221 160 188 172 168 167 170 174 172 170
216 218 197 198 226 233 245 235 218 210 207 226 232 256 214 174 193 194 293 137 34 299 201 191 215 219 235 151 163 214 208 204 207 218 206 227 205 181 185 175 171 178 177 169 172
224 187 196 220 152 205 225 240 251 234 222 221 240 231 247 213 199 167 181 187 206 198 163 153 214 223 234 150 184 237 229 211 213 218 228 218 191 173 171 167 171 180 174 175 179
245 235 230 211 209 191 210 223 231 229 223 228 219 232 230 239 246 222 198 93 94 175 180 151 186 159 228 169 108 262 228 218 220 224 216 223 204 166 179 177 172 182 186 187 187
Height
1491 1492 1493 1493 1496 1499 1501 1503 1504 1505 1508 1509 1510 1511 1511 1510 1510 1508 1505 1507 1508 1508 1508 1509 1509 1508 1509 1509 1511 1511 1521 1525 1514 1512 1503 1498 1499 1498 1497 1495 1495 1495 1495 1495 1493
1484 1487 1488 1490 1491 1493 1497 1498 1500 1501 1504 1506 1507 1508 1508 1507 1505 1502 1503 1503 1503 1505 1505 1507 1507 1507 1507 1507 1508 1508 1519 1513 1501 1498 1499 1498 1500 1498 1496 1493 1491 1492 1492 1491 1491
1478 1479 1482 1484 1486 1489 1491 1493 1496 1498 1500 1502 1504 1504 1506 1506 1504 1496 1498 1497 1497 1499 1502 1504 1505 1507 1505 1504 1504 1503 1508 1502 1496 1496 1496 1496 1496 1495 1493 1494 1489 1489 1489 1488 1488
1470 1472 1474 1477 1480 1482 1486 1488 1491 1493 1496 1499 1500 1501 1502 1505 1507 1494 1494 1493 1494 1496 1499 1501 1503 1504 1504 1502 1500 1503 1496 1497 1495 1495 1493 1493 1492 1491 1489 1486 1487 1486 1485 1485 1483
1464 1465 1468 1469 1473 1476 1479 1482 1485 1489 1492 1494 1497 1496 1498 1499 1490 1493 1493 1492 1496 1496 1497 1499 1500 1500 1501 1500 1499 1498 1494 1493 1493 1492 1491 1490 1488 1487 1479 1481 1482 1481 1480 1479 1479
1458 1459 1460 1463 1466 1468 1472 1476 1480 1484 1488 1490 1491 1494 1492 1489 1486 1490 1491 1491 1494 1496 1496 1497 1497 1498 1498 1497 1498 1494 1493 1491 1488 1486 1487 1487 1484 1482 1472 1477 1475 1473 1473 1473 1473
1452 1453 1454 1456 1459 1461 1466 1469 1474 1478 1483 1485 1487 1488 1483 1468 1481 1483 1485 1487 1490 1493 1493 1495 1496 1496 1495 1494 1494 1493 1493 1489 1483 1482 1483 1482 1482 1476 1472 1473 1470 1468 1466 1466 1468
1446 1447 1449 1450 1453 1456 1458 1462 1467 1472 1476 1480 1483 1484 1468 1465 1475 1478 1482 1482 1486 1488 1490 1492 1494 1494 1493 1493 1492 1493 1495 1499 1482 1481 1479 1481 1487 1468 1466 1468 1465 1465 1465 1464 1466
1441 1442 1443 1444 1446 1450 1453 1454 1459 1465 1469 1473 1479 1480 1463 1460 1460 1469 1476 1479 1483 1486 1488 1489 1491 1490 1491 1495 1500 1496 1502 1498 1488 1477 1478 1480 1481 1467 1467 1467 1462 1465 1468 1464 1466
1435 1435 1437 1439 1441 1443 1446 1451 1453 1457 1462 1469 1475 1480 1456 1448 1453 1458 1467 1476 1479 1483 1486 1487 1488 1488 1489 1493 1496 1492 1497 1495 1490 1476 1478 1478 1478 1468 1466 1465 1463 1463 1468 1467 1466
1430 1429 1431 1433 1436 1439 1444 1448 1451 1451 1442 1440 1443 1445 1435 1440 1446 1451 1459 1467 1475 1478 1479 1480 1487 1479 1480 1477 1479 1481 1487 1486 1481 1475 1477 1475 1473 1468 1465 1465 1462 1464 1466 1469 1468
1426 1425 1426 1427 1429 1434 1437 1435 1437 1440 1441 1440 1443 1442 1440 1438 1443 1447 1453 1458 1465 1464 1474 1479 1466 1466 1473 1475 1479 1481 1484 1485 1478 1472 1478 1474 1467 1464 1462 1461 1459 1460 1462 1462 1465
1421 1421 1421 1421 1422 1424 1426 1428 1436 1437 1439 1431 1427 1438 1440 1443 1441 1438 1444 1449 1450 1460 1459 1460 1450 1463 1468 1473 1478 1479 1479 1480 1478 1474 1469 1470 1467 1464 1459 1457 1454 1453 1457 1460 1462
1415 1415 1416 1417 1420 1419 1419 1426 1429 1429 1436 1417 1419 1418 1433 1436 1431 1430 1436 1440 1445 1447 1458 1460 1454 1457 1463 1465 1470 1478 1469 1472 1476 1483 1489 1468 1484 1460 1455 1456 1454 1451 1455 1458 1463
1410 1410 1411 1414 1414 1413 1417 1423 1425 1428 1411 1399 1406 1411 1412 1425 1415 1418 1432 1437 1435 1440 1450 1437 1444 1453 1459 1443 1456 1456 1460 1466 1471 1475 1477 1472 1479 1453 1449 1458 1452 1451 1451 1455 1460
1403 1404 1407 1408 1409 1408 1414 1419 1420 1410 1389 1398 1398 1393 1406 1404 1408 1416 1418 1430 1428 1435 1436 1431 1434 1440 1429 1443 1447 1453 1459 1464 1468 1474 1482 1467 1471 1427 1445 1445 1450 1450 1450 1453 1457
1398 1399 1402 1403 1402 1407 1409 1410 1393 1381 1390 1392 1388 1380 1385 1395 1404 1409 1411 1415 1416 1432 1434 1432 1433 1430 1431 1440 1444 1453 1460 1482 1483 1488 1467 1450 1458 1427 1431 1433 1436 1443 1448 1451 1455
1392 1394 1394 1396 1400 1404 1402 1395 1374 1359 1371 1371 1366 1373 1385 1388 1396 1394 1399 1406 1407 1403 1416 1428 1437 1420 1418 1420 1427 1438 1442 1459 1465 1476 1461 1446 1447 1431 1432 1427 1429 1438 1444 1449 1451
1388 1388 1387 1388 1396 1400 1403 1386 1361 1346 1349 1350 1351 1371 1377 1380 1382 1388 1383 1388 1384 1389 1402 1415 1413 1400 1406 1411 1414 1431 1438 1424 1444 1459 1468 1450 1435 1432 1433 1432 1431 1435 1442 1445 1448
1383 1383 1377 1382 1389 1392 1390 1373 1363 1352 1345 1334 1340 1359 1361 1370 1376 1379 1375 1368 1371 1378 1386 1396 1413 1394 1400 1409 1409 1412 1418 1442 1456 1461 1460 1447 1437 1431 1437 1435 1435 1437 1439 1443 1448
1380 1377 1372 1377 1381 1384 1376 1366 1361 1351 1355 1344 1336 1348 1351 1361 1360 1365 1359 1356 1368 1374 1383 1389 1397 1402 1395 1393 1395 1413 1416 1422 1428 1446 1449 1454 1428 1411 1420 1427 1426 1431 1437 1440 1446
1372 1368 1370 1370 1376 1371 1367 1361 1362 1352 1355 1355 1335 1333 1341 1345 1356 1359 1349 1348 1351 1364 1376 1374 1394 1406 1390 1389 1387 1390 1391 1401 1416 1456 1441 1440 1396 1410 1414 1423 1430 1431 1436 1440 1443
1362 1362 1365 1366 1361 1363 1360 1350 1350 1350 1342 1342 1334 1325 1329 1336 1350 1345 1340 1346 1347 1353 1357 1369 1383 1399 1401 1399 1395 1395 1391 1395 1413 1425 1414 1428 1400 1411 1414 1423 1426 1430 1435 1437 1440
1356 1354 1355 1355 1351 1350 1354 1349 1348 1343 1339 1347 1343 1331 1329 1332 1335 1339 1342 1345 1345 1346 1353 1360 1365 1369 1370 1356 1383 1391 1387 1385 1398 1411 1404 1400 1415 1418 1415 1418 1421 1426 1430 1434 1438
1345 1340 1340 1342 1342 1345 1347 1341 1338 1337 1333 1340 1340 1342 1325 1333 1329 1334 1343 1346 1347 1350 1350 1354 1362 1363 1363 1372 1367 1365 1372 1380 1386 1376 1396 1371 1398 1404 1409 1411 1415 1421 1425 1429 1434
1333 1334 1334 1331 1331 1341 1342 1336 1336 1331 1328 1324 1328 1321 1325 1317 1316 1327 1333 1345 1344 1352 1348 1353 1359 1361 1363 1372 1375 1375 1369 1364 1366 1370 1372 1377 1388 1395 1404 1410 1414 1417 1421 1424 1428
1325 1326 1326 1319 1323 1330 1322 1317 1317 1323 1323 1317 1318 1323 1324 1316 1320 1321 1326 1333 1340 1342 1349 1352 1354 1361 1353 1369 1380 1379 1356 1357 1356 1358 1361 1371 1376 1391 1402 1403 1408 1413 1416 1417 1420